Location: Widewater Village at Stafford
(38.4893°N, 77.3783°W)
Time: 01:32:25
(UTC+00:00)

BlueWalker 3 - Pass Details

Date: 06 December 2022
Orbit: 499 x 517 km, 53.2° (Epoch: 03 February)

Event Time Altitude Azimuth Distance (km) Brightness Sun altitude
Rises 22:48:56 0° 319° (NW) 2,626 5.9 -11.6°
Reaches altitude 10° 22:52:10 10° 347° (NNW) 1,732 4.6 -12.2°
Maximum altitude 22:54:07 13° 17° (NNE) 1,533 4.0 -12.6°
Enters shadow 22:54:50 13° 29° (NNE) 1,560 4.0 -12.7°
